[[{"header":{"parameterUnit":"m.s-1","parameterCategory":1,"la1":30.2991,"la2":30.254,"lo1":-89.0895,"lo2":-89.0444,"dy":0.0017,"dx":0.0017,"nx":28,"ny":28,"refTime":"2024-06-26T03:00:00:Z","depth":0,"parameterNumber":2,"parameterNumberName":"U-component_of_WINDS"},"data":[0,0,0,0,0,0,0,0,0,0,0,0,0,0,0,0,0,0,0,0,0,0,0,0,0,0,0,0,0,0,0,0,0,0,0,0,0,0,0,0,0,0,0,0,0,0,0,0,0,0,0,0,0,0,0,0,0,0,3.1753,3.1755,0,3.1956,3.1958,3.1961,3.2015,3.2014,3.2013,3.2011,3.2221,3.2227,3.2234,0,0,0,0,0,0,0,0,0,0,0,0,0,3.1415,3.142,3.1753,3.1756,3.1758,3.1956,3.1959,3.1961,3.2015,3.2014,3.2012,3.2011,3.2218,3.2226,3.2234,0,0,0,0,0,0,0,0,0,0,0,0,0,3.1584,3.1422,3.1753,3.1809,3.1816,3.1955,3.1959,3.1962,3.2016,3.2014,3.2012,3.201,3.2216,3.2226,3.2235,3.2334,0,0,3.2266,3.2271,0,0,0,0,0,0,0,0,3.1574,3.1596,3.1798,3.1805,3.1813,3.1958,3.1916,3.2087,3.2016,3.194,3.2011,3.2009,3.2135,3.2152,3.2194,3.2344,3.2353,3.2267,3.2273,3.2277,3.228,0,0,0,0,0,0,0,3.1562,3.1588,3.1833,3.1801,3.181,3.1825,3.1847,3.1949,3.2045,3.1946,3.1951,3.1974,3.2139,3.2184,3.2199,3.2356,3.2267,3.2276,3.2282,3.2286,3.2598,3.26,0,0,0,0,0,0,3.1541,3.1578,3.1827,3.184,3.1687,3.1832,3.1857,3.1914,3.2044,3.2062,3.1975,3.1976,3.2168,3.2187,3.2206,3.233,3.2277,3.2287,3.2293,3.2596,3.2598,3.2601,0,0,0,0,0,0,3.1533,3.1562,3.1819,3.171,3.1744,3.184,3.1903,3.1919,3.1964,3.2066,3.2084,3.2003,3.2167,3.2192,3.2302,3.2338,3.2291,3.23,3.2593,3.2596,3.26,3.2578,0,0,0,0,0,0,3.1523,3.1559,3.1597,3.171,3.1749,3.191,3.1906,3.1924,3.1981,3.1983,3.2097,3.2114,3.2167,3.2287,3.2312,3.2351,3.2308,3.259,3.2594,3.2598,3.2576,3.2581,3.2584,0,0,0,0,0,3.1511,3.1583,3.1599,3.1628,3.1798,3.1912,3.1934,3.1993,3.1983,3.2022,3.2088,3.2111,3.2331,3.2297,3.2326,3.2369,3.2588,3.2593,3.2598,3.2574,3.258,3.2584,0,0,0,0,0,0,3.1471,3.1599,3.1617,3.1728,3.1809,3.1921,3.1971,3.1997,3.2083,3.2081,3.2152,3.2178,3.2282,3.2337,3.2298,3.2472,3.246,3.2471,3.2432,3.2438,3.2442,3.2426,3.2317,0,0,0,0,0,3.1475,3.1556,3.1664,3.1751,3.1791,3.1874,3.1926,3.1965,3.2051,3.2086,3.216,3.2243,3.2332,3.2388,3.2475,3.2585,3.2611,3.2629,3.2633,3.2636,3.2644,3.2707,3.2717,3.2617,3.2617,3.2617,0,0,3.1484,3.1564,3.1611,3.1745,3.1812,3.1895,3.1902,3.199,3.2052,3.2099,3.2207,3.2264,3.2363,3.2473,3.2525,3.2522,3.2678,3.2643,3.2644,3.2651,3.2714,3.2723,3.2731,3.2621,3.262,3.262,0,0,3.1543,3.1612,3.1692,3.176,3.1861,3.1917,3.1936,3.2045,3.2085,3.2194,3.2231,3.2307,3.2458,3.2526,3.258,3.2668,3.2691,3.2694,3.2715,3.2775,3.2783,3.2791,3.2821,3.2831,3.2703,3.2703,3.2703,0,3.1542,3.1668,3.1731,3.1817,3.1875,3.1922,3.2004,3.2067,3.2191,3.2231,3.2225,3.2416,3.2485,3.2612,3.2633,3.2676,3.2701,3.2681,3.2777,3.2785,3.2793,3.2823,3.2834,3.2702,3.2702,3.2702,3.2702,0,3.1661,3.1748,3.1801,3.192,3.1985,3.2068,3.2145,3.2203,3.2237,3.2293,3.2404,3.249,3.2595,3.2628,3.2662,3.2761,3.2756,3.2763,3.2752,3.2801,3.283,3.2842,3.2702,3.2702,3.2702,3.2702,0,0,3.1698,3.1852,3.1871,3.1926,3.2042,3.2111,3.2198,3.23,3.2349,3.2434,3.2508,3.2635,3.2643,3.2705,3.2748,3.2801,3.2865,3.2802,3.2806,3.281,3.2979,3.2971,3.2983,3.2882,3.2884,3.2886,3.297,0,3.1771,3.1926,3.1986,3.2113,3.2195,3.2242,3.2318,3.2398,3.2453,3.2531,3.2593,3.2681,3.2685,3.2723,3.2778,3.2845,3.2899,3.284,3.2952,3.2955,3.2924,3.2999,3.2992,3.3066,3.2982,3.2984,3.2985,0,3.1876,3.1962,3.2097,3.2205,3.2241,3.2308,3.2407,3.2481,3.2574,3.2611,3.268,3.272,3.2813,3.2798,3.2928,3.2886,3.2936,3.2976,3.2981,3.2992,3.2972,3.3011,3.3092,3.3102,3.3004,3.3003,3.3001,0,3.1888,3.2039,3.2139,3.2185,3.2313,3.2359,3.2415,3.2505,3.2564,3.2651,3.269,3.2787,3.284,3.2915,3.298,3.2963,3.3104,3.3094,3.3137,3.3136,3.3164,3.3161,3.3251,3.3198,3.3197,3.3197,3.3197,0,3.1963,3.2043,3.2146,3.2208,3.23,3.2369,3.2459,3.2518,3.2599,3.2673,3.2721,3.2789,3.2872,3.2952,3.3004,3.3104,3.3128,3.316,3.3173,3.3155,3.3151,3.3188,3.3184,3.32,3.32,3.3199,3.3199,0,3.1991,3.2064,3.2176,3.2289,3.2319,3.2382,3.2479,3.2541,3.2599,3.2693,3.2719,3.2811,3.2908,3.2981,3.3106,3.3141,3.3247,3.3261,3.3215,3.3222,3.326,3.3255,3.3377,3.3396,3.333,3.3331,3.3331,0,3.2033,3.2096,3.2216,3.2269,3.2324,3.2409,3.2469,3.2541,3.2601,3.2712,3.2761,3.2861,3.2945,3.3097,3.3175,3.3272,3.3288,3.3324,3.3303,3.3283,3.3288,3.3282,3.3289,3.3326,3.3327,3.3327,3.3327,0,3.2099,3.2132,3.2216,3.2314,3.2384,3.2464,3.2545,3.2587,3.2673,3.2739,3.2838,3.2903,3.3032,3.313,3.3235,3.3293,3.3325,3.3334,3.3349,3.333,3.3301,3.3317,3.3222,3.333,3.333,3.3329,3.3329,3.3329,3.2135,3.2193,3.2287,3.238,3.2449,3.2524,3.2588,3.2655,3.2739,3.2848,3.2886,3.2989,3.3081,3.3225,3.3285,3.3366,3.3367,3.3389,3.3394,3.3398,3.3396,3.3289,3.3386,3.3386,3.3386,3.3386,3.3386,0,3.2203,3.2266,3.235,3.2463,3.2536,3.256,3.2652,3.2711,3.2801,3.2884,3.2966,3.3081,3.3177,3.3264,3.3364,3.3413,3.343,3.3437,3.3433,3.3446,3.339,3.3367,3.3422,3.3422,3.3422,3.3422,3.3422,3.3422,3.2246,3.2347,3.2391,3.2527,3.259,3.269,3.2741,3.281,3.2878,3.3003,3.3084,3.314,3.3225,3.3332,3.3422,3.3446,3.348,3.3483,3.3509,3.3455,3.345,3.3446,3.3424,3.349,3.349,3.3559,3.3559,3.356]},{"header":{"parameterUnit":"m.s-1","parameterCategory":1,"la1":30.2991,"la2":30.254,"lo1":-89.0895,"lo2":-89.0444,"dy":0.0017,"dx":0.0017,"nx":28,"ny":28,"refTime":"2024-06-26T03:00:00:Z","depth":0,"parameterNumber":3,"parameterNumberName":"V-component_of_WINDS"},"data":[0,0,0,0,0,0,0,0,0,0,0,0,0,0,0,0,0,0,0,0,0,0,0,0,0,0,0,0,0,0,0,0,0,0,0,0,0,0,0,0,0,0,0,0,0,0,0,0,0,0,0,0,0,0,0,0,0,0,5.3142,5.3144,0,5.3352,5.3354,5.3357,5.3375,5.3373,5.3371,5.3369,5.3572,5.3579,5.3587,0,0,0,0,0,0,0,0,0,0,0,0,0,5.2745,5.2753,5.3142,5.3145,5.3147,5.3352,5.3355,5.3357,5.3376,5.3373,5.337,5.3368,5.3569,5.3578,5.3587,0,0,0,0,0,0,0,0,0,0,0,0,0,5.2932,5.2755,5.3142,5.3181,5.3187,5.3351,5.3355,5.3358,5.3376,5.3373,5.337,5.3366,5.3567,5.3577,5.3588,5.3724,0,0,5.3623,5.3627,0,0,0,0,0,0,0,0,5.2922,5.2947,5.3173,5.3179,5.3186,5.3334,5.3289,5.348,5.3377,5.3304,5.3369,5.3365,5.3495,5.3512,5.3558,5.3733,5.3742,5.3624,5.363,5.3635,5.3638,0,0,0,0,0,0,0,5.2909,5.2938,5.3225,5.3176,5.3184,5.3185,5.3208,5.3325,5.3415,5.331,5.3312,5.3337,5.3497,5.3547,5.3563,5.3745,5.3623,5.3633,5.364,5.3645,5.404,5.4044,0,0,0,0,0,0,5.289,5.2927,5.3218,5.3231,5.3043,5.3195,5.322,5.329,5.3414,5.343,5.334,5.3337,5.353,5.355,5.357,5.3737,5.3635,5.3646,5.3652,5.4036,5.4041,5.4045,0,0,0,0,0,0,5.2881,5.2916,5.321,5.308,5.3117,5.3205,5.3283,5.3296,5.3345,5.3437,5.3451,5.3375,5.3528,5.3554,5.3686,5.3744,5.3651,5.3661,5.4032,5.4038,5.4043,5.407,0,0,0,0,0,0,5.287,5.2913,5.2968,5.3081,5.3124,5.3326,5.3286,5.3302,5.3366,5.3365,5.3473,5.3488,5.3527,5.3669,5.3697,5.3757,5.367,5.4027,5.4035,5.4041,5.4065,5.4076,5.4086,0,0,0,0,0,5.2856,5.2964,5.297,5.3005,5.3196,5.3329,5.3353,5.34,5.3371,5.3425,5.3483,5.3484,5.3733,5.3683,5.3714,5.3779,5.4024,5.4033,5.4041,5.406,5.4074,5.4086,0,0,0,0,0,0,5.2851,5.298,5.2988,5.3138,5.3223,5.3332,5.3402,5.3413,5.3506,5.35,5.355,5.3574,5.3704,5.3754,5.3696,5.3915,5.3875,5.389,5.3878,5.3893,5.3903,5.3888,5.3679,0,0,0,0,0,5.2869,5.297,5.3075,5.3197,5.324,5.3314,5.3373,5.3402,5.3491,5.3526,5.3594,5.3676,5.3773,5.3835,5.3929,5.4072,5.4094,5.4131,5.4142,5.415,5.4163,5.4241,5.4258,5.4073,5.4073,5.4073,0,0,5.2903,5.2986,5.3047,5.3198,5.3268,5.3368,5.3344,5.3451,5.3525,5.3541,5.3671,5.3723,5.3818,5.3956,5.402,5.4002,5.4219,5.4161,5.4167,5.4175,5.4251,5.4269,5.4284,5.4079,5.4078,5.4077,0,0,5.3019,5.3093,5.3203,5.3274,5.3381,5.3429,5.3455,5.3564,5.36,5.3732,5.3746,5.3832,5.3998,5.4066,5.4121,5.4263,5.4266,5.4291,5.4347,5.4423,5.4437,5.445,5.45,5.4517,5.4303,5.4303,5.4303,0,5.3048,5.3205,5.3256,5.3365,5.343,5.3453,5.3562,5.3626,5.3757,5.3799,5.3778,5.3987,5.4053,5.4206,5.4241,5.4286,5.4315,5.4279,5.4432,5.4445,5.4458,5.4506,5.4525,5.4306,5.4305,5.4305,5.4305,0,5.3235,5.3343,5.3418,5.3548,5.3621,5.3729,5.3793,5.3861,5.3883,5.3932,5.4064,5.4144,5.4255,5.4293,5.4314,5.4449,5.4435,5.4422,5.4382,5.4478,5.4523,5.4542,5.4309,5.4308,5.4307,5.4307,0,0,5.3353,5.3512,5.3539,5.3598,5.3718,5.38,5.3907,5.402,5.4076,5.4164,5.4254,5.4394,5.4383,5.4447,5.4475,5.4541,5.4647,5.452,5.4523,5.4541,5.48,5.4809,5.483,5.4651,5.4654,5.4657,5.4792,0,5.3482,5.368,5.373,5.3896,5.3995,5.4018,5.4111,5.4192,5.4241,5.4329,5.4381,5.448,5.4459,5.4497,5.4564,5.462,5.47,5.4611,5.4731,5.4735,5.4708,5.4854,5.4864,5.4987,5.481,5.4813,5.4815,0,5.366,5.3757,5.3935,5.4042,5.4086,5.4169,5.4276,5.4361,5.4452,5.4483,5.4554,5.4576,5.4685,5.464,5.4789,5.4728,5.4779,5.4814,5.482,5.4833,5.4781,5.487,5.5028,5.5046,5.4844,5.4842,5.484,0,5.3728,5.3903,5.4032,5.4082,5.421,5.4269,5.4324,5.4412,5.4477,5.4568,5.461,5.4711,5.4766,5.4842,5.4889,5.4852,5.5034,5.4993,5.506,5.5059,5.5098,5.5094,5.5266,5.5131,5.5131,5.513,5.513,0,5.3867,5.3975,5.4065,5.4144,5.4265,5.4319,5.4435,5.449,5.4569,5.4656,5.468,5.476,5.4819,5.4906,5.4943,5.5061,5.5085,5.511,5.5119,5.5109,5.5105,5.5143,5.5136,5.5135,5.5134,5.5133,5.5132,0,5.3964,5.4029,5.4172,5.4283,5.4313,5.4396,5.4489,5.4565,5.4615,5.4725,5.4754,5.483,5.4935,5.499,5.5119,5.5144,5.5276,5.5279,5.5247,5.525,5.5314,5.5307,5.5516,5.5545,5.5391,5.5392,5.5393,0,5.4049,5.4133,5.4254,5.4317,5.4374,5.4474,5.4541,5.4596,5.4664,5.4775,5.4836,5.4943,5.5032,5.5197,5.5261,5.536,5.5365,5.5432,5.538,5.5367,5.5366,5.5361,5.5369,5.544,5.5442,5.5443,5.5444,0,5.4191,5.422,5.4318,5.4427,5.4507,5.4594,5.468,5.4729,5.4797,5.4871,5.4981,5.505,5.5184,5.5289,5.5393,5.5445,5.5455,5.546,5.5481,5.5471,5.5449,5.5461,5.5271,5.5455,5.5454,5.5453,5.5452,5.5452,5.4285,5.4361,5.4459,5.4566,5.4638,5.4718,5.4795,5.4856,5.495,5.5066,5.5092,5.5207,5.5294,5.5436,5.5491,5.5579,5.5565,5.5595,5.5603,5.5609,5.5612,5.5435,5.5598,5.5597,5.5597,5.5597,5.5597,0,5.4429,5.4493,5.4592,5.4714,5.4798,5.4805,5.49,5.4969,5.5072,5.5155,5.5242,5.5367,5.5469,5.5542,5.5645,5.5701,5.5708,5.5726,5.5722,5.5734,5.5619,5.5591,5.5719,5.5719,5.5719,5.5719,5.5719,5.5719,5.4514,5.4643,5.4683,5.4846,5.4909,5.5026,5.508,5.5152,5.5219,5.5359,5.5446,5.5494,5.5572,5.5681,5.5774,5.5792,5.5828,5.5846,5.5864,5.5755,5.5742,5.573,5.5704,5.5854,5.5854,5.5973,5.5974,5.5974]}]]